Flag for Venezuela Weather past 2 weeks in Maracay, Venezuela

Now
75 °F

Broken clouds.


Feels Like: 74 °F
Forecast: N/A
Wind: N/A

Location: Maracay-B. A. Sucre

Current Time: Jul 30, 2014 at 6:20:59 PM

Latest Report: Jul 30, 2014 at 5:30 PM


Visibility: N/A

Pressure: 30.04 "Hg

Humidity: 94%

Dew point: 73 °F

Location of MaracayLocation

Historic Weather in Maracay — Graph

°F

Maracay temperature yesterday

Maximum temperature yesterday: 91 °F (at 1:30 PM)
Minimum temperature yesterday: 72 °F (at 4:30 AM)
Average temperature yesterday: 80 °F

Past Weeks' High & Low Weather Summary

 TemperatureHumidityPressure
High97 °F (Jul 17, 2:30 PM)100% (Jul 16, 5:30 AM)30.15 "Hg (Jul 16, 5:30 AM)
Low70 °F (Jul 30, 1:30 PM)56% (Jul 17, 2:30 PM)29.89 "Hg (Jul 18, 9:30 AM)
Average81 °F84%30.04 "Hg
* Reported Jul 15 4:30 PM — Jul 30 4:30 PM, Maracay, Weather by CustomWeather, © 2014

Note: Actual official high and low records may vary slightly from our data, if they occured in-between our weather recording intervals... More about our weather records

Advertising

Maracay weather history for previous 24 hours

 ConditionsComfort  
Time TempWeatherWind HumidityBarometerVisibility
4:30 PM
Jul 30
73 °FOvercast.N/A100%30.04 "HgN/A
3:30 PM73 °FOvercast.N/A100%30.07 "HgN/A
2:30 PM73 °FOvercast.N/A100%30.09 "HgN/A
1:30 PM70 °FThunderstorms. Cloudy.N/A100%30.09 "Hg1 mi
12:30 PM72 °FDrizzle. Overcast.N/A100%30.09 "Hg6 mi
11:30 AM77 °FOvercast.N/A94%30.09 "Hg6 mi
10:30 AM82 °FScattered clouds.N/A84%30.12 "HgN/A
9:30 AM81 °FScattered clouds.N/A89%30.12 "HgN/A
8:30 AM77 °FScattered clouds.N/A94%30.12 "HgN/A
7:30 AM75 °FScattered clouds.N/A100%30.09 "HgN/A
6:30 AM72 °FPassing clouds.N/A100%30.09 "HgN/A
5:30 AM72 °FPassing clouds.N/A100%30.07 "HgN/A
4:30 AM72 °FPassing clouds.N/A100%30.04 "HgN/A
1:30 AM73 °FPassing clouds.N/A100%30.09 "HgN/A
10:30 PM
Jul 29
73 °FPassing clouds.N/A100%30.09 "HgN/A
9:30 PM73 °FPassing clouds.N/A100%30.07 "HgN/A
8:30 PM75 °FPassing clouds.N/A100%30.07 "HgN/A
7:30 PM79 °FPassing clouds.N/A89%30.04 "HgN/A
6:30 PM81 °FPassing clouds.N/A84%30.01 "HgN/A
Weather by CustomWeather, © 2014

See weather overviewHow to use our weather pages